Starlink 33859

operational
NORAD ID: 63640 Int'l Des: 2025-083 Owner: SPXS Country: US Constellation: starlink
LEOCIRCULAR

Über Starlink 33859

Beschreibung wird geladen...

Live-Position

3D-Globus wird geladen...

Nächste Überflüge

Höhenverlauf

Altitude vs Time

uPlot chart will show altitude changes over time

Zweizeiliger Elementsatz

1 63640U 25083G 25305.14771715 .00033669 00000-0 12285-2 0 9992
2 63640 42.9987 11.5326 0000781 259.6806 100.3958 15.27552168 30405
Epoch: 1. Nov. 2025 • Age: 36 hours

Aktueller Status

Höhe 486.2 km
Geschwindigkeit 7.63 km/s
Subsatellitenpunkt 41.86°N, 154.02°E
Startdatum 25. Apr. 2025
Alter 0.5 years
Typ internet

Technische Details

Klassifizierung Payload
Masse 575.00 kg
Trockenmasse 530.00 kg
Gesamtmasse 575.00 kg
Länge 0.30 m
Durchmesser 4.10 m
Spannweite 29.00 m
Form Box + pan
Hersteller SPXS
Bus-Typ Starlink V2MO
Phasenstatus In Orbit
Besitzer/Staat SPXS/US

Große Konstellationen

Loading constellations...